AA6MV Weather Reports


Display with metric or nautical units.
time (UTC)temp
F
wind
direction
speed
MPH
gust
MPH
rain 1hr
in
rain 24hr
in
rain mn
in
humidity
%
barometer
mb
20260507064514 52 261 0.0 0.0 0.00 0.00 0.00 39 1009.9
20260507063013 52 263 0.0 0.0 0.00 0.00 0.00 38 1009.8
20260507061542 53 265 0.0 0.0 0.00 0.00 0.00 38 1009.7
20260507060148 53 254 0.0 0.0 0.00 0.00 0.00 37 1009.7
20260507054503 54 309 0.0 0.0 0.00 0.00 0.00 37 1009.8
20260507053100 56 309 0.0 0.0 0.00 0.00 0.00 35 1009.8
20260507051512 57 309 0.0 0.0 0.00 0.00 0.00 32 1009.8
20260507050010 58 309 0.0 0.0 0.00 0.00 0.00 32 1009.7
20260507044507 58 309 0.0 0.0 0.00 0.00 0.00 31 1009.4
20260507043003 58 265 0.0 0.0 0.00 0.00 0.00 30 1009.1
20260507041507 58 227 0.0 0.0 0.00 0.00 0.00 30 1009.1
20260507040013 58 283 0.0 0.0 0.00 0.00 0.00 31 1008.8
20260507034605 58 257 0.0 0.0 0.00 0.00 0.00 31 1008.5
20260507033056 59 263 0.0 0.0 0.00 0.00 0.00 29 1008.4
20260507031548 60 264 0.0 0.0 0.00 0.00 0.00 28 1008.3
20260507030044 61 262 0.0 0.0 0.00 0.00 0.00 27 1008.0
20260507024551 64 297 0.0 0.0 0.00 0.00 0.00 25 1007.9
20260507023034 68 351 0.0 0.0 0.00 0.00 0.00 22 1007.8
20260507020025 72 352 0.0 0.0 0.00 0.00 0.00 18 1007.6
20260507014535 72 352 0.0 0.0 0.00 0.00 0.00 16 1007.6
20260507013022 73 321 0.0 0.0 0.00 0.00 0.00 16 1007.5
20260507011601 73 337 0.0 1.0 0.00 0.00 0.00 15 1007.4
20260507010114 74 8 2.0 7.0 0.00 0.00 0.00 14 1007.4
20260507004559 74 1 0.0 4.0 0.00 0.00 0.00 15 1007.3
20260507003057 75 330 0.0 6.0 0.00 0.00 0.00 14 1007.3
20260507001520 74 359 0.0 4.0 0.00 0.00 0.00 15 1007.3
20260507000128 74 27 2.0 9.0 0.00 0.00 0.00 15 1007.3
20260506234516 75 1 1.0 6.0 0.00 0.00 0.00 16 1007.2
20260506233017 75 66 3.0 8.0 0.00 0.00 0.00 15 1007.2
20260506231525 75 329 1.0 6.0 0.00 0.00 0.00 17 1007.2
20260506230023 74 15 3.0 10.0 0.00 0.00 0.00 18 1007.5
20260506224638 74 57 0.0 7.0 0.00 0.00 0.00 17 1007.5
20260506223022 74 69 2.0 9.0 0.00 0.00 0.00 18 1007.8
20260506221548 75 1 2.0 8.0 0.00 0.00 0.00 16 1007.9
20260506214651 75 107 0.0 4.0 0.00 0.00 0.00 14 1008.2
20260506213040 73 20 1.0 6.0 0.00 0.00 0.00 13 1008.4
20260506211507 72 212 0.0 6.0 0.00 0.00 0.00 11 1008.5
20260506210012 72 1 3.0 9.0 0.00 0.00 0.00 9 1008.7
20260506204505 71 15 3.0 10.0 0.00 0.00 0.00 14 1008.7
20260506203008 72 28 1.0 5.0 0.00 0.00 0.00 18 1008.9
20260506201531 72 307 0.0 5.0 0.00 0.00 0.00 21 1009.0
20260506200152 70 316 0.0 8.0 0.00 0.00 0.00 20 1009.1
20260506194516 71 7 0.0 3.0 0.00 0.00 0.00 22 1009.3
20260506193013 69 45 0.0 6.0 0.00 0.00 0.00 25 1009.4
20260506190059 69 359 3.0 7.0 0.00 0.00 0.00 23 1009.8
20260506184557 68 44 0.0 6.0 0.00 0.00 0.00 25 1009.8
20260506184516 68 350 0.0 5.0 0.00 0.00 0.00 24 1009.8
20260506183055 69 214 0.0 4.0 0.00 0.00 0.00 25 1009.9
20260506180055 67 18 0.0 5.0 0.00 0.00 0.00 28 1010.1
20260506174558 65 58 0.0 2.0 0.00 0.00 0.00 31 1010.1
20260506173057 63 42 0.0 8.0 0.00 0.00 0.00 33 1010.2
20260506170037 62 32 1.0 5.0 0.00 0.00 0.00 33 1010.1
20260506164541 63 1 0.0 5.0 0.00 0.00 0.00 36 1010.0
20260506163030 62 305 0.0 5.0 0.00 0.00 0.00 37 1010.0
20260506160035 59 1 0.0 0.0 0.00 0.00 0.00 44 1010.0
20260506154533 58 6 0.0 1.0 0.00 0.00 0.00 46 1010.0
20260506153040 57 31 0.0 0.0 0.00 0.00 0.00 52 1010.0
20260506150028 55 13 0.0 0.0 0.00 0.02 0.00 57 1010.1
20260506144537 54 358 0.0 0.0 0.00 0.02 0.00 60 1010.1
20260506143023 52 340 0.0 0.0 0.00 0.02 0.00 64 1010.0
20260506140057 48 339 0.0 0.0 0.00 0.06 0.00 72 1010.0
20260506134539 45 299 0.0 0.0 0.00 0.06 0.00 76 1009.9
20260506133035 43 295 0.0 0.0 0.00 0.06 0.00 78 1009.7
20260506130110 41 285 0.0 0.0 0.00 0.07 0.00 75 1009.3
20260506124540 42 285 0.0 0.0 0.00 0.07 0.00 75 1009.1
20260506123043 42 285 0.0 0.0 0.00 0.07 0.00 75 1009.0
20260506120038 42 257 0.0 0.0 0.00 0.07 0.00 75 1008.6
20260506114531 42 258 0.0 0.0 0.00 0.07 0.00 75 1008.4
20260506113034 42 252 0.0 0.0 0.00 0.07 0.00 75 1008.4
20260506110101 43 251 0.0 0.0 0.00 0.07 0.00 73 1008.0
20260506104605 43 263 0.0 0.0 0.00 0.07 0.00 72 1008.0
20260506103105 43 264 0.0 0.0 0.00 0.07 0.00 72 1007.9
20260506101654 44 270 0.0 0.0 0.00 0.07 0.00 72 1007.8
20260506100136 44 249 0.0 0.0 0.00 0.07 0.00 71 1007.7
20260506094527 44 250 0.0 0.0 0.00 0.07 0.00 70 1007.7
20260506093045 45 238 0.0 0.0 0.00 0.07 0.00 68 1007.7
20260506091655 45 238 0.0 0.0 0.00 0.07 0.00 67 1007.6
20260506090041 46 236 0.0 0.0 0.00 0.07 0.00 66 1007.4
20260506084539 46 243 0.0 0.0 0.00 0.07 0.00 65 1007.4
20260506083002 47 234 0.0 0.0 0.00 0.07 0.00 63 1007.3
20260506081608 48 69 0.0 0.0 0.00 0.07 0.00 62 1007.4
20260506071555 49 91 0.0 0.0 0.00 0.07 0.00 59 1007.5